Time,TemperatureF,DewpointF,PressureIn,WindDirection,WindDirectionDegrees,WindSpeedMPH,WindSpeedGustMPH,Humidity,HourlyPrecipIn,Conditions,Clouds,dailyrainin,SolarRadiationWatts/m^2,SoftwareType,DateUTC
2013-02-24 00:01:00,34.2,30.4,29.60,South,180,15.0,26.0,86,0.00,,,0.01,0.0,meteohub,2013-02-24 06:01:00,
2013-02-24 00:06:00,34.2,30.4,29.60,South,175,12.0,26.0,86,0.00,,,0.00,0.0,meteohub,2013-02-24 06:06:00,
2013-02-24 00:11:00,34.0,30.2,29.60,South,171,13.0,25.0,86,0.00,,,0.00,0.0,meteohub,2013-02-24 06:11:00,
2013-02-24 00:16:00,33.6,29.8,29.60,South,175,14.0,22.0,86,0.00,,,0.00,0.0,meteohub,2013-02-24 06:16:00,
2013-02-24 00:21:00,33.4,30.0,29.60,South,182,10.0,19.0,87,0.00,,,0.00,0.0,meteohub,2013-02-24 06:21:00,
2013-02-24 00:26:00,33.3,29.8,29.60,South,177,8.0,18.0,87,0.00,,,0.00,0.0,meteohub,2013-02-24 06:26:00,
2013-02-24 00:31:00,33.6,30.2,29.60,South,186,15.0,18.0,87,0.00,,,0.00,0.0,meteohub,2013-02-24 06:31:00,
2013-02-24 00:37:00,33.8,29.8,29.60,South,178,8.0,20.0,85,0.00,,,0.00,0.0,meteohub,2013-02-24 06:37:00,
2013-02-24 00:42:00,34.0,30.0,29.60,South,181,19.0,20.0,85,0.00,,,0.00,0.0,meteohub,2013-02-24 06:42:00,
2013-02-24 00:47:00,34.3,30.4,29.60,South,184,21.0,25.0,85,0.00,,,0.00,0.0,meteohub,2013-02-24 06:47:00,
2013-02-24 00:52:00,34.3,30.0,29.60,South,169,13.0,30.0,84,0.00,,,0.00,0.0,meteohub,2013-02-24 06:52:00,
2013-02-24 00:57:00,34.2,29.8,29.61,South,186,17.0,30.0,84,0.00,,,0.00,0.0,meteohub,2013-02-24 06:57:00,
2013-02-24 01:02:00,33.6,29.7,29.61,South,176,8.0,30.0,85,0.00,,,0.00,0.0,meteohub,2013-02-24 07:02:00,
2013-02-24 01:07:00,33.4,29.5,29.61,South,169,11.0,21.0,85,0.00,,,0.00,0.0,meteohub,2013-02-24 07:07:00,
2013-02-24 01:12:00,33.1,29.3,29.61,South,180,11.0,17.0,86,0.00,,,0.00,0.0,meteohub,2013-02-24 07:12:00,
2013-02-24 01:17:00,33.1,29.3,29.61,South,175,10.0,16.0,86,0.00,,,0.00,0.0,meteohub,2013-02-24 07:17:00,
2013-02-24 01:22:00,33.1,29.3,29.61,South,170,7.0,16.0,86,0.00,,,0.00,0.0,meteohub,2013-02-24 07:22:00,
2013-02-24 01:27:00,33.3,29.3,29.60,South,178,21.0,21.0,85,0.00,,,0.00,0.0,meteohub,2013-02-24 07:27:00,
2013-02-24 01:32:00,33.4,29.1,29.61,SSW,192,13.0,22.0,84,0.00,,,0.00,0.0,meteohub,2013-02-24 07:32:00,
2013-02-24 01:37:00,33.3,28.9,29.60,South,184,9.0,22.0,84,0.00,,,0.00,0.0,meteohub,2013-02-24 07:37:00,
2013-02-24 01:42:00,33.1,29.1,29.60,South,178,18.0,22.0,85,0.00,,,0.00,0.0,meteohub,2013-02-24 07:42:00,
2013-02-24 01:47:00,32.7,28.8,29.60,South,182,10.0,21.0,85,0.00,,,0.00,0.0,meteohub,2013-02-24 07:47:00,
2013-02-24 01:52:00,32.7,28.8,29.60,South,182,18.0,21.0,85,0.00,,,0.00,0.0,meteohub,2013-02-24 07:52:00,
2013-02-24 01:57:00,32.9,28.9,29.60,South,171,10.0,25.0,85,0.00,,,0.00,0.0,meteohub,2013-02-24 07:57:00,
2013-02-24 02:02:00,32.4,28.4,29.60,South,184,13.0,25.0,85,0.00,,,0.00,0.0,meteohub,2013-02-24 08:02:00,
2013-02-24 02:07:00,32.4,28.6,29.60,South,180,10.0,25.0,86,0.00,,,0.00,0.0,meteohub,2013-02-24 08:07:00,
2013-02-24 02:12:00,32.2,28.4,29.59,South,181,16.0,19.0,86,0.00,,,0.00,0.0,meteohub,2013-02-24 08:12:00,
2013-02-24 02:17:00,32.4,28.4,29.59,South,188,20.0,20.0,85,0.00,,,0.00,0.0,meteohub,2013-02-24 08:17:00,
2013-02-24 02:22:00,33.1,28.8,29.59,South,180,13.0,20.0,84,0.00,,,0.00,0.0,meteohub,2013-02-24 08:22:00,
2013-02-24 02:27:00,32.7,28.4,29.59,South,187,12.0,20.0,84,0.00,,,0.00,0.0,meteohub,2013-02-24 08:27:00,
2013-02-24 02:32:00,32.7,28.4,29.58,South,178,13.0,20.0,84,0.00,,,0.00,0.0,meteohub,2013-02-24 08:32:00,
2013-02-24 02:37:00,32.7,28.4,29.58,South,185,15.0,20.0,84,0.00,,,0.00,0.0,meteohub,2013-02-24 08:37:00,
2013-02-24 02:42:00,32.5,28.0,29.58,South,189,13.0,21.0,83,0.00,,,0.00,0.0,meteohub,2013-02-24 08:42:00,
2013-02-24 02:47:00,32.7,28.2,29.58,South,186,16.0,21.0,83,0.00,,,0.00,0.0,meteohub,2013-02-24 08:47:00,
2013-02-24 02:52:00,33.1,28.4,29.57,South,181,16.0,21.0,83,0.00,,,0.00,0.0,meteohub,2013-02-24 08:52:00,
2013-02-24 02:57:00,32.9,28.0,29.57,South,183,12.0,21.0,82,0.00,,,0.00,0.0,meteohub,2013-02-24 08:57:00,
2013-02-24 03:02:00,32.9,28.2,29.57,South,182,16.0,21.0,83,0.00,,,0.00,0.0,meteohub,2013-02-24 09:02:00,
2013-02-24 03:07:00,32.5,27.7,29.57,South,181,18.0,20.0,82,0.00,,,0.00,0.0,meteohub,2013-02-24 09:07:00,
2013-02-24 03:12:00,32.4,27.9,29.57,South,184,13.0,19.0,83,0.00,,,0.00,0.0,meteohub,2013-02-24 09:12:00,
2013-02-24 03:17:00,32.2,27.7,29.56,South,186,15.0,20.0,83,0.00,,,0.00,0.0,meteohub,2013-02-24 09:17:00,
2013-02-24 03:22:00,32.0,27.7,29.56,South,186,16.0,20.0,84,0.00,,,0.00,0.0,meteohub,2013-02-24 09:22:00,
2013-02-24 03:27:00,31.8,27.5,29.56,South,190,16.0,19.0,84,0.00,,,0.00,0.0,meteohub,2013-02-24 09:27:00,
2013-02-24 03:32:00,31.6,27.3,29.55,South,188,15.0,19.0,84,0.00,,,0.00,0.0,meteohub,2013-02-24 09:32:00,
2013-02-24 03:37:00,31.8,27.5,29.55,South,185,16.0,19.0,84,0.00,,,0.00,0.0,meteohub,2013-02-24 09:37:00,
2013-02-24 03:42:00,31.6,27.1,29.55,South,187,18.0,21.0,83,0.00,,,0.00,0.0,meteohub,2013-02-24 09:42:00,
2013-02-24 03:47:00,31.6,27.1,29.55,SSW,192,14.0,21.0,83,0.00,,,0.00,0.0,meteohub,2013-02-24 09:47:00,
2013-02-24 03:52:00,31.6,27.1,29.55,South,190,16.0,21.0,83,0.00,,,0.00,0.0,meteohub,2013-02-24 09:52:00,
2013-02-24 03:57:00,31.6,27.1,29.55,South,190,18.0,19.0,83,0.00,,,0.00,0.0,meteohub,2013-02-24 09:57:00,
2013-02-24 04:02:00,31.6,27.1,29.55,South,186,16.0,18.0,83,0.00,,,0.00,0.0,meteohub,2013-02-24 10:02:00,
2013-02-24 04:07:00,31.5,27.0,29.54,South,190,16.0,19.0,83,0.00,,,0.00,0.0,meteohub,2013-02-24 10:07:00,
2013-02-24 04:12:00,31.3,26.8,29.54,South,186,14.0,19.0,83,0.00,,,0.00,0.0,meteohub,2013-02-24 10:12:00,
2013-02-24 04:17:00,30.9,26.4,29.54,South,190,14.0,19.0,83,0.00,,,0.00,0.0,meteohub,2013-02-24 10:17:00,
2013-02-24 04:22:00,30.9,26.6,29.55,South,190,13.0,17.0,84,0.00,,,0.00,0.0,meteohub,2013-02-24 10:22:00,
2013-02-24 04:27:00,30.9,26.4,29.55,South,190,11.0,18.0,83,0.00,,,0.00,0.0,meteohub,2013-02-24 10:27:00,
2013-02-24 04:32:00,30.9,26.4,29.54,South,191,12.0,18.0,83,0.00,,,0.00,0.0,meteohub,2013-02-24 10:32:00,
2013-02-24 04:37:00,30.9,26.4,29.54,SSW,192,11.0,18.0,83,0.00,,,0.00,0.0,meteohub,2013-02-24 10:37:00,
2013-02-24 04:42:00,30.7,26.2,29.54,South,189,13.0,18.0,83,0.00,,,0.00,0.0,meteohub,2013-02-24 10:42:00,
2013-02-24 04:47:00,30.7,26.4,29.54,South,186,11.0,17.0,84,0.00,,,0.00,0.0,meteohub,2013-02-24 10:47:00,
2013-02-24 04:52:00,30.6,26.2,29.54,South,188,13.0,18.0,84,0.00,,,0.00,0.0,meteohub,2013-02-24 10:52:00,
2013-02-24 04:57:00,30.2,25.9,29.54,South,185,11.0,18.0,84,0.00,,,0.00,0.0,meteohub,2013-02-24 10:57:00,
2013-02-24 05:02:00,30.0,25.7,29.53,South,182,13.0,16.0,84,0.00,,,0.00,0.0,meteohub,2013-02-24 11:02:00,
2013-02-24 05:07:00,29.5,25.2,29.54,South,182,13.0,15.0,84,0.00,,,0.00,0.0,meteohub,2013-02-24 11:07:00,
2013-02-24 05:12:00,29.1,25.0,29.54,South,182,12.0,14.0,84,0.00,,,0.00,0.0,meteohub,2013-02-24 11:12:00,
2013-02-24 05:18:00,29.1,25.2,29.55,South,188,12.0,14.0,85,0.00,,,0.00,0.0,meteohub,2013-02-24 11:18:00,
2013-02-24 05:23:00,29.1,25.2,29.55,South,190,13.0,14.0,85,0.00,,,0.00,0.0,meteohub,2013-02-24 11:23:00,
2013-02-24 05:28:00,29.1,25.2,29.55,South,189,13.0,14.0,85,0.00,,,0.00,0.0,meteohub,2013-02-24 11:28:00,
2013-02-24 05:33:00,29.3,25.3,29.55,South,187,12.0,14.0,85,0.00,,,0.00,0.0,meteohub,2013-02-24 11:33:00,
2013-02-24 05:38:00,29.5,25.5,29.56,SSW,192,8.0,14.0,85,0.00,,,0.00,0.0,meteohub,2013-02-24 11:38:00,
2013-02-24 05:43:00,29.1,25.2,29.57,SW,226,6.0,14.0,85,0.00,,,0.00,0.0,meteohub,2013-02-24 11:43:00,
2013-02-24 05:48:00,27.5,23.0,29.57,WNW,288,5.0,14.0,83,0.00,,,0.00,0.0,meteohub,2013-02-24 11:48:00,
2013-02-24 05:53:00,27.0,23.4,29.58,WNW,285,4.0,10.0,86,0.00,,,0.00,0.0,meteohub,2013-02-24 11:53:00,
2013-02-24 05:58:00,26.8,23.2,29.57,WNW,284,4.0,10.0,86,0.00,,,0.00,0.0,meteohub,2013-02-24 11:58:00,
2013-02-24 06:03:00,26.1,22.5,29.58,WNW,284,6.0,7.0,86,0.00,,,0.00,0.0,meteohub,2013-02-24 12:03:00,
2013-02-24 06:08:00,25.7,22.1,29.58,WNW,284,3.0,7.0,86,0.00,,,0.00,0.0,meteohub,2013-02-24 12:08:00,
2013-02-24 06:13:00,25.3,22.1,29.58,WNW,284,3.0,7.0,87,0.00,,,0.00,0.0,meteohub,2013-02-24 12:13:00,
2013-02-24 06:18:00,25.3,22.1,29.57,WNW,284,4.0,7.0,87,0.00,,,0.00,0.0,meteohub,2013-02-24 12:18:00,
2013-02-24 06:23:00,25.2,21.9,29.58,West,281,3.0,5.0,87,0.00,,,0.00,0.0,meteohub,2013-02-24 12:23:00,
2013-02-24 06:28:00,24.4,20.7,29.58,West,277,6.0,6.0,85,0.00,,,0.00,0.0,meteohub,2013-02-24 12:28:00,
2013-02-24 06:33:00,24.4,21.4,29.57,WSW,238,7.0,7.0,88,0.00,,,0.00,0.0,meteohub,2013-02-24 12:33:00,
2013-02-24 06:38:00,24.3,21.2,29.57,SW,232,7.0,8.0,88,0.00,,,0.00,0.0,meteohub,2013-02-24 12:38:00,
2013-02-24 06:43:00,24.1,21.0,29.57,SW,225,7.0,8.0,88,0.00,,,0.00,0.0,meteohub,2013-02-24 12:43:00,
2013-02-24 06:48:00,23.9,20.8,29.58,SW,225,8.0,8.0,88,0.00,,,0.00,0.0,meteohub,2013-02-24 12:48:00,
2013-02-24 06:53:00,23.5,20.5,29.58,SW,229,7.0,8.0,88,0.00,,,0.00,0.0,meteohub,2013-02-24 12:53:00,
2013-02-24 06:58:00,22.6,19.4,29.58,WSW,238,8.0,8.0,87,0.00,,,0.00,0.0,meteohub,2013-02-24 12:58:00,
2013-02-24 07:03:00,22.5,19.4,29.57,SW,229,10.0,10.0,88,0.00,,,0.00,0.0,meteohub,2013-02-24 13:03:00,
2013-02-24 07:08:00,21.6,18.3,29.58,SW,235,9.0,10.0,87,0.00,,,0.00,0.0,meteohub,2013-02-24 13:08:00,
2013-02-24 07:13:00,21.9,19.2,29.57,SW,231,10.0,10.0,89,0.00,,,0.00,0.0,meteohub,2013-02-24 13:13:00,
2013-02-24 07:18:00,21.6,18.3,29.57,SW,230,10.0,10.0,87,0.00,,,0.00,0.0,meteohub,2013-02-24 13:18:00,
2013-02-24 07:23:00,20.8,17.6,29.58,SW,221,10.0,11.0,87,0.00,,,0.00,5.0,meteohub,2013-02-24 13:23:00,
2013-02-24 07:28:00,21.0,18.3,29.58,SW,214,10.0,11.0,89,0.00,,,0.00,7.0,meteohub,2013-02-24 13:28:00,
2013-02-24 07:34:00,21.0,17.8,29.58,SW,214,6.0,11.0,87,0.00,,,0.00,11.0,meteohub,2013-02-24 13:34:00,
2013-02-24 07:39:00,20.8,17.6,29.58,SSW,207,9.0,11.0,87,0.00,,,0.00,16.0,meteohub,2013-02-24 13:39:00,
2013-02-24 07:44:00,20.8,17.8,29.58,SSW,205,10.0,11.0,88,0.00,,,0.00,19.0,meteohub,2013-02-24 13:44:00,
2013-02-24 07:49:00,21.0,18.0,29.58,SSW,207,9.0,10.0,88,0.00,,,0.00,30.0,meteohub,2013-02-24 13:49:00,
2013-02-24 07:54:00,21.6,18.9,29.57,SSW,200,9.0,11.0,89,0.00,,,0.00,42.0,meteohub,2013-02-24 13:54:00,
2013-02-24 07:59:00,22.5,19.8,29.58,SSW,199,10.0,11.0,89,0.00,,,0.00,56.0,meteohub,2013-02-24 13:59:00,
2013-02-24 08:04:00,22.8,19.8,29.58,SSW,194,7.0,11.0,88,0.00,,,0.00,74.0,meteohub,2013-02-24 14:04:00,
2013-02-24 08:09:00,23.5,20.8,29.58,SSW,194,8.0,11.0,89,0.00,,,0.00,93.0,meteohub,2013-02-24 14:09:00,
2013-02-24 08:14:00,24.4,21.7,29.59,SSW,200,9.0,10.0,89,0.00,,,0.00,114.0,meteohub,2013-02-24 14:14:00,
2013-02-24 08:19:00,25.0,21.7,29.59,SSW,195,9.0,10.0,87,0.00,,,0.00,135.0,meteohub,2013-02-24 14:19:00,
2013-02-24 08:24:00,25.3,22.3,29.60,SSW,197,9.0,10.0,88,0.00,,,0.00,158.0,meteohub,2013-02-24 14:24:00,
2013-02-24 08:29:00,26.1,22.6,29.60,SSW,196,6.0,12.0,87,0.00,,,0.00,181.0,meteohub,2013-02-24 14:29:00,
2013-02-24 08:35:00,26.2,22.6,29.60,SSW,197,5.0,12.0,86,0.00,,,0.00,202.0,meteohub,2013-02-24 14:35:00,
2013-02-24 08:40:00,26.4,22.5,29.61,SSW,207,7.0,12.0,85,0.00,,,0.00,220.0,meteohub,2013-02-24 14:40:00,
2013-02-24 08:45:00,26.6,22.6,29.61,SW,216,9.0,9.0,85,0.00,,,0.00,239.0,meteohub,2013-02-24 14:45:00,
2013-02-24 08:50:00,26.2,22.3,29.61,West,261,7.0,8.0,85,0.00,,,0.00,257.0,meteohub,2013-02-24 14:50:00,
2013-02-24 08:55:00,26.1,22.1,29.62,West,270,5.0,10.0,85,0.00,,,0.00,274.0,meteohub,2013-02-24 14:55:00,
2013-02-24 09:00:00,26.1,21.9,29.61,West,271,9.0,10.0,84,0.00,,,0.00,292.0,meteohub,2013-02-24 15:00:00,
2013-02-24 09:05:00,26.1,21.9,29.62,West,275,7.0,10.0,84,0.00,,,0.00,309.0,meteohub,2013-02-24 15:05:00,
2013-02-24 09:10:00,26.4,21.9,29.61,West,277,9.0,12.0,83,0.00,,,0.00,327.0,meteohub,2013-02-24 15:10:00,
2013-02-24 09:15:00,26.8,22.3,29.62,WNW,284,7.0,12.0,83,0.00,,,0.00,345.0,meteohub,2013-02-24 15:15:00,
2013-02-24 09:20:00,27.0,22.3,29.62,WNW,287,9.0,12.0,82,0.00,,,0.00,362.0,meteohub,2013-02-24 15:20:00,
2013-02-24 09:25:00,27.0,22.5,29.62,WNW,289,12.0,13.0,83,0.00,,,0.00,380.0,meteohub,2013-02-24 15:25:00,
2013-02-24 09:30:00,27.5,23.0,29.62,WNW,303,15.0,15.0,83,0.00,,,0.00,390.0,meteohub,2013-02-24 15:30:00,
2013-02-24 09:36:00,28.2,23.7,29.62,NW,305,13.0,18.0,83,0.00,,,0.00,411.0,meteohub,2013-02-24 15:36:00,
2013-02-24 09:41:00,28.6,24.1,29.62,NW,317,10.0,18.0,83,0.00,,,0.00,427.0,meteohub,2013-02-24 15:41:00,
2013-02-24 09:46:00,28.8,24.6,29.62,NW,326,15.0,18.0,84,0.00,,,0.00,443.0,meteohub,2013-02-24 15:46:00,
2013-02-24 09:51:00,29.1,25.5,29.62,NW,315,13.0,15.0,86,0.00,,,0.00,461.0,meteohub,2013-02-24 15:51:00,
2013-02-24 09:56:00,29.5,26.1,29.63,NW,324,9.0,16.0,87,0.00,,,0.00,475.0,meteohub,2013-02-24 15:56:00,
2013-02-24 10:01:00,30.0,26.6,29.64,NW,323,11.0,16.0,87,0.00,,,0.00,510.0,meteohub,2013-02-24 16:01:00,
2013-02-24 10:06:00,30.2,27.3,29.64,NNW,327,20.0,20.0,89,0.00,,,0.00,450.0,meteohub,2013-02-24 16:06:00,
2013-02-24 10:11:00,28.9,26.4,29.64,NW,321,19.0,22.0,90,0.00,,,0.00,338.0,meteohub,2013-02-24 16:11:00,
2013-02-24 10:16:00,28.9,27.0,29.65,NW,325,13.0,22.0,92,0.00,,,0.00,309.0,meteohub,2013-02-24 16:16:00,
2013-02-24 10:21:00,29.1,27.1,29.65,NNW,331,16.0,22.0,92,0.00,,,0.00,352.0,meteohub,2013-02-24 16:21:00,
2013-02-24 10:26:00,28.9,27.1,29.65,NW,323,17.0,21.0,93,0.00,,,0.00,341.0,meteohub,2013-02-24 16:26:00,
2013-02-24 10:31:00,29.1,27.3,29.65,NNW,329,16.0,20.0,93,0.00,,,0.00,327.0,meteohub,2013-02-24 16:31:00,
2013-02-24 10:36:00,29.1,27.3,29.64,NW,320,14.0,20.0,93,0.00,,,0.00,364.0,meteohub,2013-02-24 16:36:00,
2013-02-24 10:42:00,29.5,27.7,29.64,NW,320,19.0,20.0,93,0.00,,,0.00,374.0,meteohub,2013-02-24 16:42:00,
2013-02-24 10:47:00,29.8,28.0,29.64,NW,314,13.0,21.0,93,0.00,,,0.00,387.0,meteohub,2013-02-24 16:47:00,
2013-02-24 10:52:00,30.6,28.8,29.65,NW,309,17.0,21.0,93,0.00,,,0.00,403.0,meteohub,2013-02-24 16:52:00,
2013-02-24 10:57:00,30.6,28.8,29.66,NW,316,14.0,21.0,93,0.00,,,0.00,413.0,meteohub,2013-02-24 16:57:00,
2013-02-24 11:02:00,30.9,28.9,29.65,NNW,334,17.0,21.0,92,0.00,,,0.00,429.0,meteohub,2013-02-24 17:02:00,
2013-02-24 11:07:00,31.5,29.5,29.64,NNW,327,19.0,21.0,92,0.00,,,0.00,445.0,meteohub,2013-02-24 17:07:00,
2013-02-24 11:12:00,31.5,29.5,29.64,NW,326,18.0,24.0,92,0.00,,,0.00,443.0,meteohub,2013-02-24 17:12:00,
2013-02-24 11:17:00,31.5,29.5,29.65,NNW,329,19.0,24.0,92,0.00,,,0.00,387.0,meteohub,2013-02-24 17:17:00,
2013-02-24 11:22:00,31.5,29.5,29.67,NNW,327,14.0,24.0,92,0.00,,,0.00,396.0,meteohub,2013-02-24 17:22:00,
2013-02-24 11:27:00,31.6,29.7,29.66,NW,321,16.0,24.0,92,0.00,,,0.00,438.0,meteohub,2013-02-24 17:27:00,
2013-02-24 11:32:00,31.8,29.8,29.66,NNW,339,17.0,23.0,92,0.00,,,0.00,381.0,meteohub,2013-02-24 17:32:00,
2013-02-24 11:37:00,32.2,29.8,29.66,NNW,337,11.0,20.0,91,0.00,,,0.00,411.0,meteohub,2013-02-24 17:37:00,
2013-02-24 11:42:00,32.2,29.8,29.65,NW,323,20.0,20.0,91,0.00,,,0.00,448.0,meteohub,2013-02-24 17:42:00,
2013-02-24 11:47:00,32.4,30.4,29.66,North,349,13.0,20.0,92,0.00,,,0.00,406.0,meteohub,2013-02-24 17:47:00,
2013-02-24 11:52:00,32.9,30.6,29.66,NNW,346,13.0,20.0,91,0.00,,,0.00,454.0,meteohub,2013-02-24 17:52:00,
2013-02-24 11:57:00,32.5,30.2,29.65,NNW,334,15.0,20.0,91,0.00,,,0.00,469.0,meteohub,2013-02-24 17:57:00,
2013-02-24 12:02:00,32.5,30.2,29.65,NNW,340,11.0,20.0,91,0.00,,,0.00,448.0,meteohub,2013-02-24 18:02:00,
2013-02-24 12:07:00,32.7,30.4,29.65,NNW,338,15.0,20.0,91,0.00,,,0.00,480.0,meteohub,2013-02-24 18:07:00,
2013-02-24 12:12:00,32.5,30.2,29.65,NW,325,14.0,20.0,91,0.00,,,0.00,445.0,meteohub,2013-02-24 18:12:00,
2013-02-24 12:17:00,32.7,30.4,29.66,NNW,338,17.0,19.0,91,0.00,,,0.00,446.0,meteohub,2013-02-24 18:17:00,
2013-02-24 12:22:00,32.7,30.4,29.66,NNW,342,11.0,19.0,91,0.00,,,0.00,438.0,meteohub,2013-02-24 18:22:00,
2013-02-24 12:27:00,32.9,30.6,29.66,NNW,338,13.0,18.0,91,0.00,,,0.00,434.0,meteohub,2013-02-24 18:27:00,
2013-02-24 12:32:00,33.1,30.7,29.65,NNW,331,15.0,18.0,91,0.00,,,0.00,457.0,meteohub,2013-02-24 18:32:00,
2013-02-24 12:37:00,33.1,30.7,29.66,NNW,348,12.0,18.0,91,0.00,,,0.00,425.0,meteohub,2013-02-24 18:37:00,
2013-02-24 12:42:00,33.3,30.9,29.65,NNW,343,14.0,18.0,91,0.00,,,0.00,443.0,meteohub,2013-02-24 18:42:00,
2013-02-24 12:47:00,33.3,30.9,29.65,NNW,342,15.0,18.0,91,0.00,,,0.00,455.0,meteohub,2013-02-24 18:47:00,
2013-02-24 12:52:00,33.4,31.1,29.65,NNW,343,15.0,17.0,91,0.00,,,0.00,427.0,meteohub,2013-02-24 18:52:00,
2013-02-24 12:57:00,33.3,30.9,29.65,North,355,12.0,17.0,91,0.00,,,0.00,383.0,meteohub,2013-02-24 18:57:00,
2013-02-24 13:02:00,33.3,30.9,29.64,NNW,347,10.0,17.0,91,0.00,,,0.00,383.0,meteohub,2013-02-24 19:02:00,
2013-02-24 13:07:00,33.6,31.3,29.64,North,355,11.0,17.0,91,0.00,,,0.00,434.0,meteohub,2013-02-24 19:07:00,
2013-02-24 13:13:00,33.6,30.9,29.64,NNW,342,14.0,17.0,90,0.00,,,0.00,452.0,meteohub,2013-02-24 19:13:00,
2013-02-24 13:18:00,33.8,31.5,29.63,NNW,344,8.0,17.0,91,0.00,,,0.00,424.0,meteohub,2013-02-24 19:18:00,
2013-02-24 13:23:00,34.0,31.3,29.63,North,11,14.0,16.0,90,0.00,,,0.00,424.0,meteohub,2013-02-24 19:23:00,
2013-02-24 13:28:00,33.4,30.7,29.63,NNW,340,13.0,16.0,90,0.00,,,0.00,482.0,meteohub,2013-02-24 19:28:00,
2013-02-24 13:33:00,33.4,31.1,29.63,NNW,347,12.0,18.0,91,0.00,,,0.00,473.0,meteohub,2013-02-24 19:33:00,
2013-02-24 13:38:00,33.4,30.7,29.63,NNW,340,15.0,18.0,90,0.00,,,0.00,462.0,meteohub,2013-02-24 19:38:00,
2013-02-24 13:43:00,33.3,30.6,29.63,NNW,340,20.0,20.0,90,0.00,,,0.00,527.0,meteohub,2013-02-24 19:43:00,
2013-02-24 13:48:00,33.1,30.7,29.63,NNW,333,20.0,22.0,91,0.00,,,0.00,466.0,meteohub,2013-02-24 19:48:00,
2013-02-24 13:53:00,33.1,30.7,29.62,NNW,338,21.0,22.0,91,0.00,,,0.00,466.0,meteohub,2013-02-24 19:53:00,
2013-02-24 13:58:00,33.1,30.4,29.63,NNW,334,20.0,23.0,90,0.00,,,0.00,457.0,meteohub,2013-02-24 19:58:00,
2013-02-24 14:04:00,33.1,30.7,29.62,NW,325,19.0,24.0,91,0.00,,,0.00,480.0,meteohub,2013-02-24 20:04:00,
2013-02-24 14:09:00,33.1,30.4,29.62,NNW,338,21.0,24.0,90,0.00,,,0.00,429.0,meteohub,2013-02-24 20:09:00,
2013-02-24 14:14:00,33.1,30.4,29.62,NNW,338,21.0,24.0,90,0.00,,,0.00,418.0,meteohub,2013-02-24 20:14:00,
2013-02-24 14:19:00,33.1,30.7,29.63,NNW,344,20.0,23.0,91,0.00,,,0.00,362.0,meteohub,2013-02-24 20:19:00,
2013-02-24 14:24:00,33.1,30.4,29.64,NNW,338,18.0,23.0,90,0.00,,,0.00,385.0,meteohub,2013-02-24 20:24:00,
2013-02-24 14:29:00,33.1,30.4,29.64,North,355,18.0,23.0,90,0.00,,,0.00,352.0,meteohub,2013-02-24 20:29:00,
2013-02-24 14:34:00,33.4,30.7,29.64,North,9,14.0,24.0,90,0.00,,,0.00,318.0,meteohub,2013-02-24 20:34:00,
2013-02-24 14:39:00,33.4,30.7,29.64,NNE,17,8.0,24.0,90,0.00,,,0.00,329.0,meteohub,2013-02-24 20:39:00,
2013-02-24 14:44:00,33.4,30.6,29.64,NE,36,10.0,21.0,89,0.00,,,0.00,294.0,meteohub,2013-02-24 20:44:00,
2013-02-24 14:49:00,33.3,30.4,29.64,NNW,342,17.0,19.0,89,0.00,,,0.00,278.0,meteohub,2013-02-24 20:49:00,
2013-02-24 14:54:00,33.1,30.4,29.64,North,9,16.0,19.0,90,0.00,,,0.00,267.0,meteohub,2013-02-24 20:54:00,
2013-02-24 14:59:00,32.9,30.4,29.65,NNW,342,19.0,19.0,90,0.00,,,0.00,288.0,meteohub,2013-02-24 20:59:00,
2013-02-24 15:04:00,32.7,30.2,29.65,North,349,16.0,21.0,90,0.00,,,0.00,181.0,meteohub,2013-02-24 21:04:00,
2013-02-24 15:09:00,32.7,30.2,29.66,North,355,14.0,22.0,90,0.00,,,0.00,190.0,meteohub,2013-02-24 21:09:00,
2013-02-24 15:14:00,32.7,30.2,29.67,NNW,339,13.0,22.0,90,0.00,,,0.00,178.0,meteohub,2013-02-24 21:14:00,
2013-02-24 15:19:00,32.7,30.2,29.68,North,0,14.0,22.0,90,0.00,,,0.00,188.0,meteohub,2013-02-24 21:19:00,
2013-02-24 15:25:00,32.7,30.2,29.68,North,5,13.0,19.0,90,0.00,,,0.00,211.0,meteohub,2013-02-24 21:25:00,
2013-02-24 15:30:00,32.7,30.2,29.68,NNE,13,9.0,19.0,90,0.00,,,0.00,169.0,meteohub,2013-02-24 21:30:00,
2013-02-24 15:35:00,32.7,30.2,29.68,North,355,11.0,18.0,90,0.00,,,0.00,190.0,meteohub,2013-02-24 21:35:00,
2013-02-24 15:40:00,32.7,30.2,29.68,NNW,333,12.0,18.0,90,0.00,,,0.00,237.0,meteohub,2013-02-24 21:40:00,
2013-02-24 15:45:00,32.9,30.4,29.69,North,349,15.0,17.0,90,0.00,,,0.00,195.0,meteohub,2013-02-24 21:45:00,
2013-02-24 15:50:00,32.9,30.4,29.68,NNW,339,17.0,17.0,90,0.00,,,0.00,229.0,meteohub,2013-02-24 21:50:00,
2013-02-24 15:55:00,33.1,30.4,29.68,NNW,345,14.0,19.0,90,0.00,,,0.00,162.0,meteohub,2013-02-24 21:55:00,
2013-02-24 16:00:00,32.7,29.8,29.68,NNE,21,14.0,20.0,89,0.00,,,0.00,183.0,meteohub,2013-02-24 22:00:00,
2013-02-24 16:05:00,32.7,30.2,29.68,North,5,15.0,20.0,90,0.00,,,0.00,195.0,meteohub,2013-02-24 22:05:00,
2013-02-24 16:10:00,32.7,29.8,29.68,NNW,346,17.0,19.0,89,0.00,,,0.00,192.0,meteohub,2013-02-24 22:10:00,
2013-02-24 16:15:00,32.9,30.0,29.68,NNW,346,17.0,22.0,89,0.00,,,0.00,167.0,meteohub,2013-02-24 22:15:00,
2013-02-24 16:20:00,32.9,30.0,29.69,North,355,10.0,24.0,89,0.00,,,0.00,156.0,meteohub,2013-02-24 22:20:00,
2013-02-24 16:25:00,32.9,30.0,29.69,North,350,16.0,24.0,89,0.00,,,0.00,125.0,meteohub,2013-02-24 22:25:00,
2013-02-24 16:30:00,32.9,30.0,29.69,North,5,11.0,24.0,89,0.00,,,0.00,95.0,meteohub,2013-02-24 22:30:00,
2013-02-24 16:36:00,32.7,29.8,29.69,NNE,24,15.0,22.0,89,0.00,,,0.00,100.0,meteohub,2013-02-24 22:36:00,
2013-02-24 16:41:00,32.5,29.7,29.70,NNE,27,15.0,22.0,89,0.00,,,0.00,84.0,meteohub,2013-02-24 22:41:00,
2013-02-24 16:46:00,32.5,29.7,29.72,North,350,10.0,21.0,89,0.00,,,0.00,72.0,meteohub,2013-02-24 22:46:00,
2013-02-24 16:51:00,32.4,29.5,29.72,NNE,12,8.0,21.0,89,0.00,,,0.00,49.0,meteohub,2013-02-24 22:51:00,
2013-02-24 16:56:00,32.2,29.7,29.73,NNE,14,10.0,17.0,90,0.00,,,0.00,51.0,meteohub,2013-02-24 22:56:00,
2013-02-24 17:01:00,32.0,29.5,29.72,North,9,11.0,17.0,90,0.00,,,0.00,60.0,meteohub,2013-02-24 23:01:00,
2013-02-24 17:06:00,32.0,29.5,29.72,NNE,13,11.0,17.0,90,0.00,,,0.00,49.0,meteohub,2013-02-24 23:06:00,
2013-02-24 17:11:00,32.0,29.7,29.73,NNE,25,12.0,17.0,91,0.00,,,0.00,54.0,meteohub,2013-02-24 23:11:00,
2013-02-24 17:16:00,32.0,29.7,29.74,North,9,19.0,19.0,91,0.00,,,0.00,56.0,meteohub,2013-02-24 23:16:00,
2013-02-24 17:21:00,32.2,29.8,29.75,North,5,9.0,21.0,91,0.00,,,0.00,40.0,meteohub,2013-02-24 23:21:00,
2013-02-24 17:26:00,32.2,29.7,29.75,North,11,14.0,21.0,90,0.00,,,0.00,39.0,meteohub,2013-02-24 23:26:00,
2013-02-24 17:31:00,32.2,29.3,29.75,NNE,22,11.0,19.0,89,0.00,,,0.00,33.0,meteohub,2013-02-24 23:31:00,
2013-02-24 17:36:00,32.2,29.7,29.77,NNE,12,13.0,17.0,90,0.00,,,0.00,21.0,meteohub,2013-02-24 23:36:00,
2013-02-24 17:41:00,32.4,29.8,29.77,NNE,12,12.0,17.0,90,0.00,,,0.00,23.0,meteohub,2013-02-24 23:41:00,
2013-02-24 17:46:00,32.4,29.5,29.77,North,5,13.0,15.0,89,0.00,,,0.00,26.0,meteohub,2013-02-24 23:46:00,
2013-02-24 17:51:00,32.4,29.5,29.76,North,0,12.0,16.0,89,0.00,,,0.00,30.0,meteohub,2013-02-24 23:51:00,
2013-02-24 17:56:00,32.4,29.8,29.75,North,355,15.0,16.0,90,0.00,,,0.00,28.0,meteohub,2013-02-24 23:56:00,
2013-02-24 18:01:00,32.4,29.8,29.75,North,9,10.0,17.0,90,0.00,,,0.00,25.0,meteohub,2013-02-25 00:01:00,
2013-02-24 18:06:00,32.4,29.8,29.75,NNE,22,14.0,22.0,90,0.00,,,0.00,16.0,meteohub,2013-02-25 00:06:00,
2013-02-24 18:11:00,32.2,29.8,29.75,NNW,344,13.0,22.0,91,0.00,,,0.00,11.0,meteohub,2013-02-25 00:11:00,
2013-02-24 18:17:00,32.2,29.8,29.75,North,355,20.0,22.0,91,0.00,,,0.00,7.0,meteohub,2013-02-25 00:17:00,
2013-02-24 18:22:00,32.0,29.7,29.75,NNE,15,14.0,22.0,91,0.00,,,0.00,0.0,meteohub,2013-02-25 00:22:00,
2013-02-24 18:27:00,32.0,29.7,29.75,North,9,16.0,22.0,91,0.00,,,0.00,0.0,meteohub,2013-02-25 00:27:00,
2013-02-24 18:32:00,31.8,29.5,29.75,North,5,17.0,22.0,91,0.00,,,0.00,0.0,meteohub,2013-02-25 00:32:00,
2013-02-24 18:37:00,31.8,29.5,29.75,North,355,17.0,22.0,91,0.00,,,0.00,0.0,meteohub,2013-02-25 00:37:00,
2013-02-24 18:42:00,31.6,29.3,29.75,NNE,13,17.0,22.0,91,0.00,,,0.00,0.0,meteohub,2013-02-25 00:42:00,
2013-02-24 18:47:00,31.5,29.5,29.75,North,355,19.0,24.0,92,0.00,,,0.00,0.0,meteohub,2013-02-25 00:47:00,
2013-02-24 18:52:00,31.3,29.5,29.75,NNW,332,18.0,27.0,93,0.00,,,0.00,0.0,meteohub,2013-02-25 00:52:00,
2013-02-24 18:57:00,30.9,29.1,29.75,NNW,344,24.0,27.0,93,0.00,,,0.00,0.0,meteohub,2013-02-25 00:57:00,
2013-02-24 19:02:00,30.7,29.3,29.75,NNW,341,16.0,29.0,94,0.00,,,0.00,0.0,meteohub,2013-02-25 01:02:00,
2013-02-24 19:07:00,30.6,29.1,29.75,NNW,338,26.0,31.0,94,0.00,,,0.00,0.0,meteohub,2013-02-25 01:07:00,
2013-02-24 19:12:00,30.6,29.1,29.78,NNW,331,28.0,31.0,94,0.00,,,0.00,0.0,meteohub,2013-02-25 01:12:00,
2013-02-24 19:17:00,30.6,29.1,29.80,NNW,336,21.0,31.0,94,0.00,,,0.00,0.0,meteohub,2013-02-25 01:17:00,
2013-02-24 19:22:00,30.6,29.1,29.82,NNW,340,16.0,30.0,94,0.00,,,0.00,0.0,meteohub,2013-02-25 01:22:00,
2013-02-24 19:28:00,30.6,29.1,29.83,North,11,9.0,30.0,94,0.00,,,0.00,0.0,meteohub,2013-02-25 01:28:00,
2013-02-24 19:33:00,30.4,28.9,29.83,NNW,347,16.0,28.0,94,0.00,,,0.00,0.0,meteohub,2013-02-25 01:33:00,
2013-02-24 19:38:00,30.4,28.9,29.84,North,5,11.0,23.0,94,0.00,,,0.00,0.0,meteohub,2013-02-25 01:38:00,
2013-02-24 19:43:00,30.2,28.8,29.85,North,355,10.0,21.0,94,0.00,,,0.00,0.0,meteohub,2013-02-25 01:43:00,
2013-02-24 19:48:00,30.0,28.6,29.84,North,11,11.0,21.0,94,0.00,,,0.00,0.0,meteohub,2013-02-25 01:48:00,
2013-02-24 19:53:00,29.8,28.4,29.84,NNE,18,14.0,21.0,94,0.00,,,0.00,0.0,meteohub,2013-02-25 01:53:00,
2013-02-24 19:58:00,29.7,28.2,29.83,North,355,13.0,21.0,94,0.00,,,0.00,0.0,meteohub,2013-02-25 01:58:00,
2013-02-24 20:03:00,29.7,28.2,29.83,North,5,14.0,20.0,94,0.00,,,0.00,0.0,meteohub,2013-02-25 02:03:00,
2013-02-24 20:08:00,29.5,28.2,29.83,North,0,17.0,21.0,95,0.00,,,0.00,0.0,meteohub,2013-02-25 02:08:00,
2013-02-24 20:13:00,29.3,28.0,29.84,NNW,344,11.0,21.0,95,0.00,,,0.00,0.0,meteohub,2013-02-25 02:13:00,
2013-02-24 20:18:00,29.1,27.9,29.83,North,5,11.0,22.0,95,0.00,,,0.00,0.0,meteohub,2013-02-25 02:18:00,
2013-02-24 20:23:00,29.1,27.9,29.81,North,355,19.0,22.0,95,0.00,,,0.00,0.0,meteohub,2013-02-25 02:23:00,
2013-02-24 20:28:00,28.9,27.7,29.81,North,0,8.0,23.0,95,0.00,,,0.00,0.0,meteohub,2013-02-25 02:28:00,
2013-02-24 20:33:00,28.9,27.7,29.83,North,5,18.0,25.0,95,0.00,,,0.00,0.0,meteohub,2013-02-25 02:33:00,
2013-02-24 20:38:00,28.9,27.7,29.83,North,5,11.0,25.0,95,0.00,,,0.00,0.0,meteohub,2013-02-25 02:38:00,
2013-02-24 20:43:00,28.9,27.7,29.83,North,5,9.0,25.0,95,0.00,,,0.00,0.0,meteohub,2013-02-25 02:43:00,
2013-02-24 20:48:00,28.9,27.7,29.84,North,0,15.0,23.0,95,0.00,,,0.00,0.0,meteohub,2013-02-25 02:48:00,
2013-02-24 20:54:00,28.9,27.7,29.83,NNE,13,18.0,20.0,95,0.00,,,0.00,0.0,meteohub,2013-02-25 02:54:00,
2013-02-24 20:59:00,28.6,27.3,29.83,North,351,9.0,22.0,95,0.00,,,0.00,0.0,meteohub,2013-02-25 02:59:00,
2013-02-24 21:04:00,28.6,27.3,29.81,North,5,21.0,22.0,95,0.00,,,0.00,0.0,meteohub,2013-02-25 03:04:00,
2013-02-24 21:09:00,28.2,27.0,29.80,NNW,348,16.0,24.0,95,0.00,,,0.00,0.0,meteohub,2013-02-25 03:09:00,
2013-02-24 21:14:00,28.2,27.0,29.74,North,349,26.0,28.0,95,0.00,,,0.00,0.0,meteohub,2013-02-25 03:14:00,
2013-02-24 21:19:00,28.0,26.8,29.78,North,9,19.0,28.0,95,0.00,,,0.00,0.0,meteohub,2013-02-25 03:19:00,
2013-02-24 21:24:00,28.0,26.8,29.80,North,5,15.0,29.0,95,0.00,,,0.00,0.0,meteohub,2013-02-25 03:24:00,
2013-02-24 21:29:00,28.0,26.8,29.81,North,355,20.0,29.0,95,0.00,,,0.00,0.0,meteohub,2013-02-25 03:29:00,
2013-02-24 21:34:00,28.0,26.8,29.81,North,355,22.0,29.0,95,0.00,,,0.00,0.0,meteohub,2013-02-25 03:34:00,
2013-02-24 21:39:00,27.9,26.6,29.81,NNW,337,24.0,24.0,95,0.00,,,0.00,0.0,meteohub,2013-02-25 03:39:00,
2013-02-24 21:44:00,27.9,26.6,29.81,North,349,19.0,26.0,95,0.00,,,0.00,0.0,meteohub,2013-02-25 03:44:00,
2013-02-24 21:49:00,27.9,26.6,29.81,NNE,18,13.0,26.0,95,0.00,,,0.00,0.0,meteohub,2013-02-25 03:49:00,
2013-02-24 21:54:00,27.9,26.6,29.81,NNW,348,19.0,26.0,95,0.00,,,0.00,0.0,meteohub,2013-02-25 03:54:00,
2013-02-24 21:59:00,27.9,26.6,29.82,North,355,18.0,26.0,95,0.00,,,0.00,0.0,meteohub,2013-02-25 03:59:00,
2013-02-24 22:04:00,27.9,26.6,29.83,North,355,22.0,25.0,95,0.00,,,0.00,0.0,meteohub,2013-02-25 04:04:00,
2013-02-24 22:09:00,28.0,26.8,29.83,North,355,15.0,25.0,95,0.00,,,0.00,0.0,meteohub,2013-02-25 04:09:00,
2013-02-24 22:14:00,28.0,26.8,29.85,North,5,18.0,25.0,95,0.00,,,0.00,0.0,meteohub,2013-02-25 04:14:00,
2013-02-24 22:20:00,28.0,26.8,29.85,North,351,18.0,26.0,95,0.00,,,0.00,0.0,meteohub,2013-02-25 04:20:00,
2013-02-24 22:25:00,28.0,26.8,29.83,North,5,15.0,26.0,95,0.00,,,0.00,0.0,meteohub,2013-02-25 04:25:00,
2013-02-24 22:30:00,28.0,26.8,29.82,North,0,27.0,27.0,95,0.00,,,0.00,0.0,meteohub,2013-02-25 04:30:00,
2013-02-24 22:35:00,28.0,26.8,29.81,North,0,19.0,28.0,95,0.00,,,0.00,0.0,meteohub,2013-02-25 04:35:00,
2013-02-24 22:40:00,28.0,26.8,29.81,North,5,20.0,28.0,95,0.00,,,0.00,0.0,meteohub,2013-02-25 04:40:00,
2013-02-24 22:45:00,28.0,26.8,29.81,NW,319,22.0,28.0,95,0.00,,,0.00,0.0,meteohub,2013-02-25 04:45:00,
2013-02-24 22:50:00,28.0,26.8,29.83,North,5,26.0,28.0,95,0.00,,,0.00,0.0,meteohub,2013-02-25 04:50:00,
2013-02-24 22:55:00,28.0,26.8,29.83,NNE,12,26.0,31.0,95,0.00,,,0.00,0.0,meteohub,2013-02-25 04:55:00,
2013-02-24 23:00:00,28.0,26.8,29.84,NNW,348,22.0,31.0,95,0.00,,,0.00,0.0,meteohub,2013-02-25 05:00:00,
2013-02-24 23:06:00,28.0,26.8,29.85,North,355,15.0,30.0,95,0.00,,,0.00,0.0,meteohub,2013-02-25 05:06:00,
2013-02-24 23:11:00,28.0,26.8,29.85,NNE,24,20.0,30.0,95,0.00,,,0.00,0.0,meteohub,2013-02-25 05:11:00,
2013-02-24 23:16:00,28.0,26.8,29.84,North,355,11.0,29.0,95,0.00,,,0.00,0.0,meteohub,2013-02-25 05:16:00,
2013-02-24 23:21:00,28.0,26.8,29.83,North,5,21.0,27.0,95,0.00,,,0.00,0.0,meteohub,2013-02-25 05:21:00,
2013-02-24 23:26:00,28.0,26.8,29.83,NE,36,17.0,26.0,95,0.00,,,0.00,0.0,meteohub,2013-02-25 05:26:00,
2013-02-24 23:31:00,28.2,27.0,29.83,North,5,21.0,27.0,95,0.00,,,0.00,0.0,meteohub,2013-02-25 05:31:00,
2013-02-24 23:36:00,28.2,27.0,29.82,NNW,338,20.0,28.0,95,0.00,,,0.00,0.0,meteohub,2013-02-25 05:36:00,
2013-02-24 23:41:00,28.4,27.1,29.81,NNE,15,23.0,31.0,95,0.00,,,0.00,0.0,meteohub,2013-02-25 05:41:00,
2013-02-24 23:46:00,28.4,27.1,29.83,NNE,14,24.0,31.0,95,0.00,,,0.00,0.0,meteohub,2013-02-25 05:46:00,
2013-02-24 23:51:00,28.6,27.3,29.83,North,5,15.0,29.0,95,0.00,,,0.00,0.0,meteohub,2013-02-25 05:51:00,
2013-02-24 23:56:00,28.6,27.5,29.85,NNE,19,15.0,28.0,96,0.00,,,0.00,0.0,meteohub,2013-02-25 05:56:00,